Track COSMOS 648 now! 10-day predictions COSMOS 648 is classified as:
1 07272U 74024H 21108.59466473 -.00000005 00000-0 69712-4 0 9996 2 07272 74.0155 281.0913 0033506 280.0253 144.7289 12.50338142144714